Tracking 30995 objects as of 5-Jul-2025
HD Live streaming from Space Station
objects crossing your sky now

SL-19 R/B

Track SL-19 R/B now!
10-day predictions


NORAD ID: 32957
Int'l Code: 2008-025E
Perigee: 1,202.7 km
Apogee: 1,512.6 km
Inclination: 82.5 °
Period: 112.7 minutes
Semi major axis: 7728 km
RCS: 6.575 m2 (large)
Launch date: May 23, 2008
Source: Commonwealth of Independent States (former USSR) (CIS)
Launch site: PLESETSK MISSILE AND SPACE COMPLEX (PKMTR)

Note: This is a ROCKET BODY
Your satellite tracking list
GEESAT 3-02
Track 1 satellite(s)




NASA's NSSDC Master Catalog

Two Line Element Set (TLE):
1 32957U 08025E   25186.43567554  .00000007  00000-0 -25732-4 0  9993
2 32957  82.5039 310.3287 0200524 118.8051 305.3299 12.77755838798318
Source of the keplerian elements: AFSPC